CW5425 Tenafly NJ US current weather conditions

sailwx.info

Wind from 338 at 1 knots gusting 6

Air temperature 3.9° C
Dewpoint -3.2° C

Last reported at 2020-Jan-28 22:56 UTC.
Time now 2020-Jan-29 00:10 UTC

Location: N 40°55' W 073°59'.
View on Google Maps.

See reports from other nearby stations

  
Tides and Currents Weather Stations Pressure Air Temp Water Temp Dewpoint Dewpoint Depression Visibility Wind Speed Wind Dir Waves Ship Positions
date/time (UTC)wind fromknots sea level pressurealtimeterstation pressurevisibilityair tempwater tempwave heightnotes
2020-Jan-28 22:56 338 1 gusting 6 3.9
2020-Jan-28 22:41 316 2 gusting 7 3.9
2020-Jan-28 22:26 318 2 gusting 6 3.9
2020-Jan-28 22:11 331 0 gusting 6 4.4
2020-Jan-28 21:56 293 0 gusting 6 4.4
2020-Jan-28 21:41 350 0 gusting 7 4.4
2020-Jan-28 21:26 313 0 gusting 8 4.4
2020-Jan-28 21:11 315 3 gusting 9 4.4
2020-Jan-28 20:56 311 3 gusting 7 4.4
2020-Jan-28 20:41 351 1 gusting 7 4.4
2020-Jan-28 20:26 360 1 gusting 8 4.4
2020-Jan-28 20:11 312 2 gusting 6 5.0
2020-Jan-28 19:56 340 0 gusting 6 4.4
2020-Jan-28 19:41 327 1 gusting 6 4.4
2020-Jan-28 19:26 028 1 gusting 6 4.4
2020-Jan-28 19:11 320 4 gusting 13 5.0
2020-Jan-28 18:56 320 0 gusting 11 5.0
2020-Jan-28 18:41 005 4 gusting 10 5.0
2020-Jan-28 18:26 317 2 gusting 9 5.0
2020-Jan-28 18:11 345 2 gusting 8 5.6
2020-Jan-28 17:56 325 4 gusting 10 5.6
2020-Jan-28 17:41 304 0 gusting 6 5.6
2020-Jan-28 17:26 021 1 gusting 9 5.6
2020-Jan-28 17:11 309 0 gusting 8 5.6
2020-Jan-28 16:56 024 0 gusting 8 5.6
2020-Jan-28 16:41 314 2 gusting 9 5.6
2020-Jan-28 16:26 360 1 gusting 6 5.6
2020-Jan-28 16:11 313 2 gusting 7 5.6
2020-Jan-28 15:56 298 4 gusting 10 5.6
2020-Jan-28 15:41 328 3 gusting 10 5.0
2020-Jan-28 15:26 298 1 gusting 6 5.0
2020-Jan-28 15:11 312 4 gusting 7 4.4
2020-Jan-28 14:56 305 2 gusting 8 4.4
2020-Jan-28 14:41 340 3 gusting 6 4.4
2020-Jan-28 14:26 328 2 gusting 6 3.9
2020-Jan-28 14:11 021 0 gusting 8 3.9
2020-Jan-28 13:56 310 0 gusting 6 3.9
2020-Jan-28 13:41 350 3 gusting 8 3.3
2020-Jan-28 13:26 005 1 gusting 3 2.8
2020-Jan-28 13:11 355 2.8
2020-Jan-28 12:56 290 0 gusting 5 2.8
2020-Jan-28 12:41 318 2.8
2020-Jan-28 12:26 316 2.8
2020-Jan-28 12:11 305 0 gusting 2 2.8
2020-Jan-28 11:56 310 2.8
2020-Jan-28 11:41 292 1 gusting 6 2.8
2020-Jan-28 11:26 294 0 gusting 5 2.8
2020-Jan-28 11:11 311 0 gusting 4 2.8
2020-Jan-28 10:56 339 1 gusting 6 2.8
2020-Jan-28 10:41 269 1 gusting 6 2.8
2020-Jan-28 10:26 317 1 gusting 7 2.8
2020-Jan-28 10:11 340 0 gusting 5 2.8
2020-Jan-28 09:56 323 1 gusting 6 2.8
2020-Jan-28 09:41 315 1 gusting 4 2.8
2020-Jan-28 09:26 288 0 gusting 7 2.8
2020-Jan-28 09:11 297 1 gusting 6 2.8
2020-Jan-28 08:56 292 0 gusting 5 2.8
2020-Jan-28 08:41 348 1 gusting 5 2.8
2020-Jan-28 08:26 013 0 gusting 7 3.3
2020-Jan-28 08:11 301 3 gusting 6 3.3
2020-Jan-28 07:56 309 0 gusting 5 3.3
2020-Jan-28 07:41 311 3.3
2020-Jan-28 07:26 309 1 gusting 5 3.3
2020-Jan-28 07:11 342 3.3
2020-Jan-28 06:56 299 3.3
2020-Jan-28 06:41 298 0 gusting 4 3.3
2020-Jan-28 06:26 350 3.9
2020-Jan-28 06:11 351 3.9
2020-Jan-28 05:56 355 0 gusting 5 3.9
2020-Jan-28 05:41 313 1 gusting 4 3.9
2020-Jan-28 05:26 331 3.9
2020-Jan-28 05:11 309 0 gusting 4 3.9
2020-Jan-28 04:56 319 1 gusting 6 3.9
2020-Jan-28 04:41 325 2 gusting 8 3.9
2020-Jan-28 04:26 299 1 gusting 8 3.9
2020-Jan-28 04:11 312 1 gusting 6 3.9
2020-Jan-28 03:56 311 2 gusting 6 3.9
2020-Jan-28 03:41 319 0 gusting 3 4.4
2020-Jan-28 03:26 319 0 gusting 5 4.4
2020-Jan-28 03:11 325 0 gusting 2 4.4
2020-Jan-28 02:56 333 0 gusting 5 4.4
2020-Jan-28 02:41 350 4.4
2020-Jan-28 02:26 350 0 gusting 6 4.4
2020-Jan-28 02:11 281 0 gusting 2 4.4
2020-Jan-28 01:56 281 1 gusting 6 4.4
2020-Jan-28 01:41 284 0 gusting 5 5.0
2020-Jan-28 01:26 283 0 gusting 2 5.0
2020-Jan-28 01:11 283 1 gusting 6 5.0
2020-Jan-28 00:56 290 5.0
2020-Jan-28 00:41 290 5.0
2020-Jan-28 00:26 290 0 gusting 2 5.0
2020-Jan-28 00:11 288 5.0
2020-Jan-27 23:56 316 1 gusting 6 5.0
2020-Jan-27 23:41 301 5.0
2020-Jan-27 23:26 301 5.6
2020-Jan-27 23:11 301 5.6
2020-Jan-27 22:56 294 0 gusting 5 5.6
2020-Jan-27 22:41 301 0 gusting 4 5.6
2020-Jan-27 22:26 284 1 gusting 4 5.6
2020-Jan-27 22:11 329 1 gusting 4 6.1
2020-Jan-27 21:56 300 1 gusting 6 6.1
2020-Jan-27 21:41 292 1 gusting 6 6.1
2020-Jan-27 21:26 278 2 gusting 8 6.7
2020-Jan-27 21:11 009 1 gusting 7 6.7
2020-Jan-27 20:56 314 2 gusting 7 6.7
2020-Jan-27 20:41 298 0 gusting 6 7.2
2020-Jan-27 20:26 312 1 gusting 7 7.2
2020-Jan-27 20:11 311 2 gusting 9 7.2
2020-Jan-27 19:56 340 0 gusting 6 6.7
2020-Jan-27 19:41 329 6.7
2020-Jan-27 19:26 321 0 gusting 7 6.7
2020-Jan-27 19:11 313 2 gusting 6 6.7
2020-Jan-27 18:56 280 2 gusting 7 6.7
2020-Jan-27 18:41 336 0 gusting 10 6.7
2020-Jan-27 18:26 250 0 gusting 3 6.1
2020-Jan-27 18:11 243 0 gusting 2 6.1
2020-Jan-27 17:56 243 0 gusting 2 6.1
2020-Jan-27 17:41 250 1 gusting 3 6.1
2020-Jan-27 17:26 250 1 gusting 4 6.1
2020-Jan-27 17:11 254 2 gusting 6 6.1
2020-Jan-27 16:56 248 2 gusting 5 6.1
2020-Jan-27 16:41 234 2 gusting 6 6.1
2020-Jan-27 16:26 236 3 gusting 5 6.1
2020-Jan-27 16:11 242 1 gusting 6 5.6
2020-Jan-27 15:56 252 3 gusting 6 5.0
2020-Jan-27 15:41 198 1 gusting 8 5.6
2020-Jan-27 15:26 274 0 gusting 6 5.6
2020-Jan-27 15:11 286 1 gusting 6 5.0
2020-Jan-27 14:56 265 2 gusting 5 4.4
2020-Jan-27 14:41 261 1 gusting 6 4.4
2020-Jan-27 14:26 273 2 gusting 7 4.4
2020-Jan-27 14:11 232 1 gusting 4 3.3
2020-Jan-27 13:56 242 2 gusting 5 2.8
2020-Jan-27 13:41 247 1 gusting 4 2.8
2020-Jan-27 13:26 251 1 gusting 3 2.2
2020-Jan-27 13:11 251 1 gusting 4 2.2
2020-Jan-27 12:56 250 0 gusting 4 2.2
2020-Jan-27 12:41 247 1 gusting 6 2.2
2020-Jan-27 12:26 261 1 gusting 3 2.2
2020-Jan-27 12:11 261 2 gusting 3 2.2
2020-Jan-27 11:56 261 0 gusting 3 2.2
2020-Jan-27 11:41 262 0 gusting 5 2.2
2020-Jan-27 11:26 261 1 gusting 5 1.7
2020-Jan-27 11:11 273 1 gusting 5 1.7
2020-Jan-27 10:56 275 0 gusting 3 1.7
2020-Jan-27 10:41 275 0 gusting 4 1.7
2020-Jan-27 10:26 276 0 gusting 1 1.1
2020-Jan-27 10:11 275 0 gusting 2 1.1
2020-Jan-27 09:56 275 1.1
2020-Jan-27 09:41 276 0 gusting 2 1.1
2020-Jan-27 09:26 276 1.1
2020-Jan-27 09:11 276 0 gusting 2 0.6
2020-Jan-27 08:56 276 0 gusting 1 0.6
2020-Jan-27 08:41 276 0 gusting 2 -0.0
2020-Jan-27 08:26 276 -0.0
2020-Jan-27 08:11 276 -0.0
2020-Jan-27 07:56 276 -0.6
2020-Jan-27 07:41 276 -0.6
2020-Jan-27 07:26 276 -0.6
2020-Jan-27 07:11 276 -1.1
2020-Jan-27 06:56 276 -1.1
2020-Jan-27 06:41 276 -1.1
2020-Jan-27 06:26 276 -1.1
2020-Jan-27 06:11 276 -0.6
2020-Jan-27 05:56 276 -0.6
2020-Jan-27 05:41 276 -0.6
2020-Jan-27 05:26 276 -0.0
2020-Jan-27 05:11 276 -0.0
2020-Jan-27 04:56 276 -0.0
2020-Jan-27 04:41 276 0.6
2020-Jan-27 04:26 276 0.6
2020-Jan-27 04:11 276 1.1
2020-Jan-27 03:56 276 1.1
2020-Jan-27 03:41 276 1.7
2020-Jan-27 03:26 276 2.2
2020-Jan-27 03:11 276 2.2
2020-Jan-27 02:56 276 2.8
2020-Jan-27 02:41 276 0 gusting 2 3.3
2020-Jan-27 02:26 276 0 gusting 4 3.3
2020-Jan-27 02:11 277 0 gusting 2 3.9
2020-Jan-27 01:56 276 1 gusting 3 3.9
2020-Jan-27 01:41 284 0 gusting 3 4.4
2020-Jan-27 01:26 286 4.4
2020-Jan-27 01:11 296 0 gusting 3 5.0
2020-Jan-27 00:56 251 5.0
2020-Jan-27 00:41 292 1 gusting 8 5.0
2020-Jan-27 00:26 254 2 gusting 5 5.0
2020-Jan-27 00:11 292 1 gusting 7 5.0